Overview Statistics Trail Chart Weather Telemetry Raw packets
 

This is the latest recevied weather packets stored in our database for station/object KC2GYU. If no packets are shown the sender has not sent any weather packets the latest 10 day(s).

<< 40 41 42 43 44 45 46 >>
Time Temp. Humidity Pressure Rain* Wind** Luminosity Snow
1777811760 8.33° C 72% 1014.2 hPa 0 mm - 108 W/m² -
1777811456 8.33° C 71% 1014.2 hPa 0 mm - 129 W/m² -
1777811152 8.33° C 72% 1014.2 hPa 0 mm - 114 W/m² -
1777810849 8.33° C 73% 1014.2 hPa 0 mm - 101 W/m² -
1777810546 8.33° C 72% 1014.1 hPa 0 mm - 84 W/m² -
1777810243 8.33° C 74% 1014.2 hPa 0 mm - 71 W/m² -
1777809939 8.33° C 74% 1014 hPa 0 mm - 65 W/m² -
1777809638 8.33° C 74% 1013.9 hPa 0 mm - 66 W/m² -
1777809335 7.78° C 75% 1013.8 hPa 0 mm - 74 W/m² -
1777809032 7.78° C 75% 1013.9 hPa 0 mm - 77 W/m² -
1777808730 7.78° C 75% 1014 hPa 0 mm - 69 W/m² -
1777808426 7.78° C 76% 1013.6 hPa 0 mm - 70 W/m² -
1777808124 7.78° C 76% 1013.9 hPa 0 mm - 70 W/m² -
1777807822 7.78° C 77% 1013.8 hPa 0 mm - 56 W/m² -
1777807520 7.78° C 78% 1013.7 hPa 0 mm - 44 W/m² -
1777807227 7.22° C 78% 1013.6 hPa 0 mm - 46 W/m² -
1777806913 7.22° C 78% 1013.5 hPa 0 mm - 50 W/m² -
1777806609 7.22° C 79% 1013.5 hPa 0 mm - 37 W/m² -
1777806305 7.22° C 79% 1013.3 hPa 0 mm - 26 W/m² -
1777806001 7.22° C 80% 1013.1 hPa 0 mm - 21 W/m² -
1777805698 7.22° C 81% 1013.2 hPa 0 mm - 19 W/m² -
1777805396 6.67° C 81% 1012.9 hPa 0 mm - 22 W/m² -
1777805095 6.67° C 82% 1013.2 hPa 0 mm - 21 W/m² -
1777804791 6.11° C 83% 1012.9 hPa 0 mm - 21 W/m² -
1777804490 6.11° C 83% 1012.9 hPa 0 mm - 20 W/m² -

* Rain latest hour (hover to see other rain measurements)
** Current wind speed in m/s (hover to see current wind gust speed)